Regional Weather Roundup
Issued by NWS Midland/Odessa, TX

Home | Current Version | Previous Version | Text Only | Print | Product List | Glossary On
Versions: 1 2 3 4 5 6 7 8 9 10 11 12 13 14 15 16 17 18 19 20 21 22 23 24 25 26 27 28 29 30 31 32 33 34 35 36 37 38 39 40 41 42 43 44 45 46 47 48 49 50
000
ASUS44 KMAF 010310
RWRMAF
MIDLAND AREA WEATHER ROUNDUP
NATIONAL WEATHER SERVICE MIDLAND TX
1000 PM CDT SUN APR 30 2017

...IN SOUTHWEST TEXAS AND SOUTHEAST NEW MEXICO...

CITY           SKY/WX    TMP DP  RH WIND       PRES   REMARKS
ALPINE         CLEAR     56   7  14 W7        30.10R
ANDREWS        FAIR      59  26  28 W6        29.94S
ARTESIA        CLEAR     59  28  31 W6        29.93R
BIG SPRING     CLEAR     55  34  46 E7        29.96R
CARLSBAD       CLEAR     59  29  31 SW9       29.91R
DRYDEN           N/A     65  14  14 N8        29.93R
FORT STOCKTON  CLEAR     62  14  15 W8        29.96R
GUAD PASS      CLEAR     57  18  21 W20       30.02R
HOBBS          CLEAR     55  27  33 SW3       29.95S
MARFA          CLEAR     51   7  16 NE8       30.07R
MIDLAND AIRPK  CLEAR     64  29  27 W6        29.95R
MIDLAND INTL   CLEAR     62  29  28 SW6       29.94R
ODESSA         CLEAR     63  27  25 CALM      29.95R
PECOS          CLEAR     58  19  22 S3        29.93S
PRESIDIO       FAIR      70   7   8 NW6       29.98R
SEMINOLE       CLEAR     55  31  40 CALM      29.94S
SNYDER         CLEAR    N/A N/A N/A CALM      29.94R
WINK           CLEAR     60  27  28 SW8       29.92R
$$
...OTHER STATIONS IN TEXAS...

CITY           SKY/WX    TMP DP  RH WIND       PRES   REMARKS
ABILENE        CLEAR     59  23  25 NE5       29.95R
AMARILLO       CLEAR     49  28  44 W13       29.88R
AUSTIN         CLEAR     55  48  77 CALM      29.95R
BROWNSVILLE    CLEAR     69  56  62 E5        29.96R
CORPUS CHRISTI PTCLDY    71  40  32 E6        29.93R
DALLAS FTW     CLEAR     58  32  37 W10       29.89S
DEL RIO        CLEAR     67  38  34 SE6       29.91R
EL PASO        PTCLDY    72   6   7 W23       29.96R
HOUSTON INT    CLEAR     59  47  64 SW3       29.95R
LUBBOCK        CLEAR     54  31  41 S5        29.89F
SAN ANGELO     CLEAR     53  32  44 E3        29.94R
SAN ANTONIO    CLEAR     62  38  40 CALM      29.94R
WACO           CLEAR     55  42  61 N7        29.95R
WICHITA FALLS  NOT AVBL
$$
...OTHER LOCATIONS IN NEW MEXICO...

CITY           SKY/WX    TMP DP  RH WIND       PRES   REMARKS
ALAMOGORDO     CLEAR     54  28  37 SE9       29.97R
ALBUQUERQUE    PTCLDY    58  16  19 N14       30.01R
CANNON AFB     CLEAR     49  40  72 SW8       29.88S
CLOVIS         CLEAR     48  34  57 SW5       29.89R
HOLLOMAN AFB   CLEAR     63  23  21 SE8       29.99R
ROSWELL        CLEAR     53  33  46 S7          N/A
RUIDOSO        CLEAR     52  14  22 W12G18    30.06R
SANTA FE       CLOUDY    50  25  37 W14       29.99R
TRUTH OR CONSE CLEAR     65  13  13 N7        29.98R
TUCUMCARI      CLEAR     48  39  71 E9        29.86R
$$




USA.gov is the U.S. government's official web portal to all federal, state and local government web resources and services.